Weather reports worldwide

Advertisment
Noervenich/Flugplatz, Germany (10502): temperature & dewpoint: 16.02.2019 22:00:00 - 22.02.2019 22:00:00 (CET)Noervenich/Flugplatz, Germany (10502): wind speed: 16.02.2019 22:00:00 - 22.02.2019 22:00:00 (CET)Noervenich/Flugplatz, Germany (10502): wind direction: 16.02.2019 22:00:00 - 22.02.2019 22:00:00 (CET)Noervenich/Flugplatz, Germany (10502): reduced air pressure: 16.02.2019 22:00:00 - 22.02.2019 22:00:00 (CET)Noervenich/Flugplatz, Germany (10502): visibility: 16.02.2019 22:00:00 - 22.02.2019 22:00:00 (CET)
Date & Time tt [°C] td [°C] ff [km/h] ff [kn] dd ppp [hPa] vv [km]
22.02.2019 22:00:00 5,0 3,6 4 2 N 1038,5 25
22.02.2019 21:00:00 7,8 5,1 7 4 SE 1037,8 25
22.02.2019 20:00:00 6,3 5,0 4 2 WNW 1038,2 25
22.02.2019 19:00:00 8,0 5,6 4 2 NW 1037,7 25
22.02.2019 18:00:00 10,0 6,2 0 0 N 1037,3 25
22.02.2019 17:00:00 11,4 5,8 4 2 N 1037,1 30
22.02.2019 16:00:00 11,7 5,6 7 4 E 1036,6 30
22.02.2019 15:00:00 11,9 7,0 11 6 NE 1036,9 20
22.02.2019 14:00:00 11,2 7,4 4 2 NNE 1036,8 10
22.02.2019 13:00:00 10,8 7,9 4 2 NNW 1036,8 7
22.02.2019 12:00:00 9,4 8,9 4 2 NNW 1036,8 1,4
22.02.2019 11:00:00 8,6 8,2 7 4 N 1036,7 0,7
22.02.2019 10:00:00 8,4 8,0 11 6 NNW 1035,9 1,1
22.02.2019 09:00:00 8,4 8,0 7 4 NW 1035,1 0,9
22.02.2019 08:00:00 8,3 7,9 7 4 NW 1034,5 0,8
22.02.2019 07:00:00 8,4 8,0 11 6 NW 1033,8 0,9
22.02.2019 06:00:00 8,5 8,0 11 6 NW 1033,3 1,2
22.02.2019 05:00:00 8,6 7,9 9 5 WNW 1032,8 1,8
22.02.2019 04:00:00 9,0 7,3 15 8 NW 1032,4 4,5
22.02.2019 03:00:00 9,3 7,2 14 8 NW 1032,3 12
22.02.2019 02:00:00 9,4 7,2 14 8 NW 1032,1 8
22.02.2019 01:00:00 9,8 6,8 7 4 NNW 1031,8 12
22.02.2019 00:00:00 10,3 6,8 7 4 NNW 1031,4 12
21.02.2019 23:00:00 10,4 6,8 14 8 NW 1030,8 12
21.02.2019 22:00:00 9,2 7,6 7 4 W 1030,4 10
21.02.2019 21:00:00 9,8 7,6 4 2 WSW 1029,7 10
21.02.2019 20:00:00 9,4 7,7 4 2 WSW 1029,5 10
21.02.2019 19:00:00 10,4 7,1 11 6 WNW 1029,2 10
21.02.2019 18:00:00 11,1 6,7 7 4 WNW 1028,1 15
21.02.2019 17:00:00 12,0 6,3 14 8 WNW 1027,8 15
21.02.2019 16:00:00 12,3 6,2 11 6 NW 1027,9 15
21.02.2019 15:00:00 12,1 6,9 14 8 WNW 1027,6 15
21.02.2019 14:00:00 13,1 6,0 22 12 WNW 1027,4 15
21.02.2019 13:00:00 12,3 6,4 18 10 WNW 1027,8 15
21.02.2019 12:00:00 11,5 5,9 18 10 W 1028,0 12
21.02.2019 11:00:00 10,7 5,7 14 8 WNW 1028,0 12
21.02.2019 10:00:00 9,0 4,3 7 4 SSW 1027,6 18
21.02.2019 09:00:00 5,8 3,5 4 2 S 1027,5 20
21.02.2019 08:00:00 4,4 2,5 7 4 S 1026,9 20
21.02.2019 07:00:00 3,9 1,8 4 2 SSW 1026,7 30
21.02.2019 06:00:00 6,3 2,9 7 4 SSW 1026,6 30
21.02.2019 05:00:00 6,7 3,0 4 2 SSW 1026,7 30
21.02.2019 04:00:00 7,0 2,7 11 6 SW 1026,6 30
21.02.2019 03:00:00 6,1 2,3 11 6 SSW 1026,3 30
21.02.2019 02:00:00 5,3 1,8 11 6 S 1026,3 30
21.02.2019 01:00:00 5,0 1,5 11 6 S 1026,2 30
21.02.2019 00:00:00 4,4 1,2 4 2 N 1026,3 30
20.02.2019 23:00:00 5,4 1,4 7 4 SW 1025,9 30
20.02.2019 22:00:00 5,8 1,3 7 4 SW 1025,6 30
20.02.2019 21:00:00 6,0 2,2 7 4 SSW 1025,5 30
20.02.2019 20:00:00 6,1 2,1 7 4 SW 1025,1 30
20.02.2019 19:00:00 7,7 2,5 7 4 SW 1024,8 30
20.02.2019 18:00:00 10,6 2,6 4 2 N 1024,1 30
20.02.2019 17:00:00 11,2 2,4 4 2 N 1023,9 30
20.02.2019 16:00:00 11,0 2,3 14 8 W 1023,8 30
20.02.2019 15:00:00 10,9 3,2 18 10 W 1024,0 30
20.02.2019 14:00:00 11,1 1,8 18 10 W 1024,0 30
20.02.2019 13:00:00 10,5 3,2 18 10 W 1024,2 30
20.02.2019 12:00:00 10,3 3,3 14 8 WNW 1024,1 30
20.02.2019 11:00:00 9,0 3,0 11 6 SW 1023,9 20
20.02.2019 10:00:00 6,7 2,7 11 6 SSW 1023,9 20
20.02.2019 09:00:00 3,4 1,7 7 4 N 1023,6 20
20.02.2019 08:00:00 1,6 0,3 7 4 S 1023,3 30
20.02.2019 07:00:00 2,1 0,2 4 2 N 1022,8 20
20.02.2019 06:00:00 3,0 0,4 11 6 SW 1022,8 20
20.02.2019 05:00:00 2,6 0,1 14 8 SW 1022,7 20
20.02.2019 04:00:00 2,5 -0,1 11 6 SW 1022,6 20
20.02.2019 03:00:00 3,0 -0,1 11 6 WSW 1022,7 20
20.02.2019 02:00:00 3,5 -0,2 11 6 SW 1022,8 20
20.02.2019 01:00:00 4,2 0,2 11 6 SW 1022,8 20
20.02.2019 00:00:00 4,4 0,1 7 4 WSW 1022,5 20
19.02.2019 23:00:00 4,7 0,6 11 6 SSW 1022,3 20
19.02.2019 22:00:00 5,0 1,0 11 6 SW 1022,3 30
19.02.2019 21:00:00 5,5 1,2 11 6 SSW 1022,0 30
19.02.2019 20:00:00 5,8 1,1 7 4 WSW 1021,9 30
19.02.2019 19:00:00 6,8 1,6 11 6 WSW 1021,5 30
19.02.2019 18:00:00 7,0 1,7 11 6 WNW 1021,1 10
19.02.2019 17:00:00 8,8 1,0 22 12 W 1020,8 30
19.02.2019 16:00:00 9,6 1,3 29 16 W 1020,6 30
19.02.2019 15:00:00 10,1 1,9 25 14 WNW 1020,5 30
19.02.2019 14:00:00 10,6 1,7 29 16 W 1020,4 30
19.02.2019 13:00:00 10,3 1,3 29 16 W 1020,3 30
19.02.2019 12:00:00 9,4 2,4 29 16 W 1020,4 20
19.02.2019 11:00:00 8,7 3,7 25 14 W 1020,5 20
19.02.2019 10:00:00 7,4 5,3 14 8 W 1020,3 10
19.02.2019 09:00:00 6,9 4,4 14 8 W 1019,7 10
19.02.2019 08:00:00 6,7 4,6 18 10 W 1019,1 10
19.02.2019 07:00:00 6,7 5,0 14 8 WSW 1018,3 15
19.02.2019 06:00:00 6,6 5,4 14 8 W 1018,2 7
19.02.2019 05:00:00 7,6 4,4 14 8 W 1017,8 15
19.02.2019 04:00:00 7,1 2,8 14 8 W 1017,5 20
19.02.2019 03:00:00 7,0 1,6 22 12 W 1017,4 30
19.02.2019 02:00:00 7,9 0,7 11 6 SSW 1017,0 30
19.02.2019 01:00:00 8,8 0,4 14 8 SSW 1016,8 30
19.02.2019 00:00:00 8,7 0,7 14 8 SSW 1016,9 30
18.02.2019 23:00:00 8,6 0,8 11 6 SSW 1017,0 30
18.02.2019 22:00:00 8,1 0,9 7 4 SSE 1016,7 40
18.02.2019 21:00:00 9,9 1,1 11 6 WSW 1016,7 40
18.02.2019 20:00:00 8,6 1,2 11 6 SSW 1016,5 40
18.02.2019 19:00:00 10,4 0,5 11 6 SSW 1016,4 40
18.02.2019 18:00:00 11,8 0,4 11 6 SSW 1016,2 40
18.02.2019 17:00:00 13,7 0,0 18 10 SSW 1015,9 40
18.02.2019 16:00:00 14,7 -1,3 22 12 S 1015,7 40
18.02.2019 15:00:00 16,3 -2,7 22 12 S 1015,7 30
18.02.2019 14:00:00 16,1 1,3 11 6 ESE 1016,7 30
18.02.2019 13:00:00 14,3 2,7 11 6 ESE 1018,0 30
18.02.2019 12:00:00 12,4 2,8 7 4 ESE 1018,8 30
18.02.2019 11:00:00 9,9 0,9 11 6 E 1019,4 30
18.02.2019 10:00:00 8,4 0,2 11 6 SSE 1019,7 30
18.02.2019 09:00:00 1,9 -0,6 7 4 SE 1020,2 30
18.02.2019 08:00:00 1,4 -1,5 7 4 SSE 1020,2 30
18.02.2019 07:00:00 1,9 -2,5 7 4 SSE 1020,5 30
18.02.2019 06:00:00 4,8 -1,3 14 8 S 1020,3 30
18.02.2019 05:00:00 3,1 -1,4 11 6 S 1020,6 30
18.02.2019 04:00:00 3,2 -1,4 11 6 S 1020,7 30
18.02.2019 03:00:00 6,0 -1,1 11 6 S 1020,8 30
18.02.2019 02:00:00 5,7 -1,0 14 8 S 1021,1 30
18.02.2019 01:00:00 6,0 -0,4 14 8 S 1021,0 30
18.02.2019 00:00:00 5,0 -0,6 11 6 S 1021,2 30
17.02.2019 23:00:00 5,1 -0,8 11 6 S 1021,5 30
17.02.2019 22:00:00 8,1 -0,6 7 4 SE 1021,3 30
17.02.2019 21:00:00 7,0 -0,1 11 6 SSE 1021,2 30
17.02.2019 20:00:00 8,5 0,2 7 4 SSE 1021,0 30
17.02.2019 19:00:00 11,4 -0,4 14 8 S 1020,4 30
17.02.2019 18:00:00 14,1 -1,8 14 8 SSW 1019,7 30
17.02.2019 17:00:00 17,2 -3,1 7 4 S 1019,5 30
17.02.2019 16:00:00 16,9 2,5 14 8 ESE 1019,6 20
17.02.2019 15:00:00 16,5 2,3 14 8 ESE 1019,8 20
17.02.2019 14:00:00 15,5 2,8 11 6 ESE 1020,6 20
17.02.2019 13:00:00 14,1 1,7 14 8 SE 1021,4 18
17.02.2019 12:00:00 11,2 2,8 11 6 ESE 1022,2 15
17.02.2019 11:00:00 9,1 1,6 7 4 SE 1022,6 15
17.02.2019 10:00:00 5,5 1,0 11 6 SE 1023,1 15
17.02.2019 09:00:00 5,0 0,3 11 6 SSE 1023,4 15
17.02.2019 08:00:00 2,1 -0,5 11 6 S 1023,7 15
17.02.2019 07:00:00 0,8 -0,9 7 4 SSE 1023,8 20
17.02.2019 06:00:00 2,5 -0,1 11 6 S 1024,0 20
17.02.2019 05:00:00 2,6 -0,3 11 6 S 1024,3 20
17.02.2019 04:00:00 3,7 0,5 14 8 S 1024,5 20
17.02.2019 03:00:00 1,8 0,2 11 6 S 1025,2 20
17.02.2019 02:00:00 2,0 -0,3 11 6 S 1025,5 20
17.02.2019 01:00:00 4,3 0,6 11 6 SSE 1025,5 20
17.02.2019 00:00:00 6,5 0,9 14 8 S 1025,6 25
16.02.2019 23:00:00 4,9 1,2 7 4 SSE 1026,0 25
16.02.2019 22:00:00 4,3 1,8 7 4 SSE 1026,0 25

tt = temperature
td = dewpoint
ff = wind speed
dd = wind direction
ppp = reduced air pressure
vv = visibility

Next stations